Regional Weather Roundup
Issued by NWS Mobile, AL

Home | Current Version | Previous Version | Text Only | Print | Product List | Glossary On
Versions: 1 2 3 4 5 6 7 8 9 10 11 12 13 14 15 16 17 18 19 20 21 22 23 24 25 26 27 28 29 30
000
ASUS44 KMOB 301310
RWRMOB
REGIONAL WEATHER ROUNDUP
NATIONAL WEATHER SERVICE MOBILE AL
800 AM CDT THU OCT 30 2014

NOTE: "FAIR" INDICATES FEW OR NO CLOUDS BELOW 12,000 FEET WITH NO
      SIGNIFICANT WEATHER AND/OR OBSTRUCTIONS TO VISIBILITY.

  * THESE STATIONS ARE PART OF THE UNIVERSITY OF SOUTH ALABAMA
    MESONET AND ARE NOT UNDER NWS OR FAA QUALITY CONTROL.

ALZ061>064-301400-
COASTAL ALABAMA

CITY           SKY/WX    TMP DP  RH WIND       PRES   REMARKS
MOBILE REG APT MOSUNNY   55  48  77 N9        30.10R
BROOKLEY FIELD SUNNY     57  53  86 N9        30.11R
USA CAMPUS*      N/A     55  50  82 CALM      30.11R
DOG RIVER*     NOT AVBL


CITY           SKY/WX    TMP DP  RH WIND       PRES   REMARKS
MOUNT VERNON*  NOT AVBL
SARALAND*      NOT AVBL
BAY MINETTE*   NOT AVBL
LOXLEY*          N/A     57  55  94 N7        30.09R
ROBERTSDALE*     N/A     57  55  94 N6        30.08R
FAIRHOPE*        N/A     57  54  88 NE8       30.08R
ELBERTA*         N/A     59  52  77 N6        30.07R
FOLEY*           N/A     57  50  77 VRB6      30.05R
GRAND BAY*       N/A     55  52  88 N3        30.07R
DAUPHIN ISLND* NOT AVBL
BON SCOUR NWR* NOT AVBL
GULF SHORES    MOSUNNY   60  51  71 N7        30.07R

$$

ALZ051>060-301400-
INTERIOR SOUTHWEST AND SOUTH CENTRAL ALABAMA

CITY           SKY/WX    TMP DP  RH WIND       PRES   REMARKS
GREENVILLE     SUNNY     52  47  83 N3        30.10R
EVERGREEN      SUNNY     54  50  86 N3        30.11R
CASTLEBERRY*   NOT AVBL
ATMORE*          N/A     55  54  94 N6        30.11R
DIXIE*           N/A     54  52  94 N3        30.06R
ANDALUSIA/OPP  SUNNY     61  50  67 NE6       30.08R
ANDALUSIA*       N/A     57  50  77 N6        30.08R
FLORALA APT    SUNNY     59  50  72 N6        30.09R
FLORALA*         N/A     57  50  77 VRB6      30.05R

$$

FLZ001>006-301400-
WESTERN FLORIDA PANHANDLE

CITY           SKY/WX    TMP DP  RH WIND       PRES   REMARKS
PENSACOLA      MOSUNNY   61  51  70 N9        30.07R
NAS PENSACOLA  PTSUNNY   62  52  69 N12       30.06R
MILTON         MOSUNNY   58  52  80 N10       30.07R
WHTNG S FIELD  MOSUNNY   60  52  74 N10       30.07R


CITY           SKY/WX    TMP DP  RH WIND       PRES   REMARKS
WALNUT HILL*   NOT AVBL
JAY*             N/A     55  52  88 NW6       30.09R
DUKE FIELD     SUNNY     59  53  79 N9        30.06R
CRESTVIEW      SUNNY     59  52  77 N6        30.08R
VALPARAISO     MOSUNNY   60  52  76 N8        30.06R
DESTIN         SUNNY     63  53  70 NE9       30.05R

$$

MSZ076-079-301400-
INTERIOR SOUTHEAST MISSISSIPPI

CITY           SKY/WX    TMP DP  RH WIND       PRES   REMARKS
LEAKESVILLE*     N/A     50  41  71 NE3       30.12R
AGRICOLA*      NOT AVBL

$$

MARINE OBSERVATIONS

STATION/POSITION TIME  TEMP    WIND        PRES    WAVE
                       AIR SEA DIR/SP/G            HT/PER
                 (UTC) (F)     (DEG/KT/KT) (MB)    (FT/S)
PASCAGOULA       1300   59      10/  7/ 10 1018.6R
PETIT BOIS ISLND 1300   61      20/ 14/ 18 1018.7R
GRAND BAY        1200   58     360/  6     1019.0R
KATRINA CUT      1200   62      30/ 15     1018.3R
CEDAR POINT      1200   64      30/ 17     1018.0R
E DAUPHIN ISLAND 1156   65      30/ 21/ 24 1018.0R
MIDDLE BAY LIGHT 1200   64      30/ 19       N/A
USCG MOBILE BAY  1300   57 76  360/  6/ 11 1017.8R
STATE DOCKS      1300   58 74              1018.9R
MEAHER PARK      1200   57     350/  6     1019.0R
WEEKS BAY        1200   60                   N/A
12 S ORANGE BCH  1300   67 77   30/ 17/ 23 1016.8R   3/ 5
PENSACOLA BAY    1300   63 76   30/  9/ 13 1018.2R
64 S DAUPHIN ISL 1200   71 78   30/ 14/ 16 1017.4R   4/ 5
67 S FORT MORGAN 1200   72                 1016.3R

$$

SELECTED LOCATIONS ACROSS THE REGION

CITY           SKY/WX    TMP DP  RH WIND       PRES   REMARKS
NEW ORLEANS    PTCLDY    63  46  54 NE13      30.10R
GULFPORT       CLEAR     56  44  64 N7        30.10R
PASCAGOULA AP  CLEAR     55  49  80 N7        30.10R
PASCAGOULA*      N/A     55  50  82 NE7       30.09R
HATTIESBURG    CLEAR     49  45  86 CALM      30.14R
LAUREL         CLEAR     48  41  76 N7        30.14R
MERIDIAN       CLEAR     42  40  92 CALM      30.15R
JACKSON        CLEAR     43  42  97 CALM      30.16R
MONTGOMERY     SUNNY     50  47  89 CALM      30.12R
TROY           SUNNY     52  49  89 CALM      30.10R
KINSTON*       NOT AVBL
GENEVA*          N/A     57  52  82 NE3       30.10R
ASHFORD*         N/A     57  50  77 N6        30.08R
DOTHAN         SUNNY     56  47  71 N5        30.10R
PANAMA CITY    CLOUDY    62  52  69 N5        30.03R

$$




USA.gov is the U.S. government's official web portal to all federal, state and local government web resources and services.